| time (UTC) | temp C | wind direction | speed KPH | gust KPH | rain 1hr cm | rain 24hr cm | rain mn cm | humidity % | barometer mb |
| 20260504001508 | 8 | 281 | 0.0 | 4.8 | 0.00 | 1.02 | 1.02 | 91 | 1005.8 |
| 20260504000008 | 7 | 297 | 0.0 | 6.4 | 0.00 | 1.02 | 1.02 | 91 | 1005.8 |
| 20260503234508 | 7 | 239 | 0.0 | 4.8 | 0.00 | 1.02 | 1.02 | 92 | 1005.8 |
| 20260503233008 | 7 | 239 | 1.6 | 4.8 | 0.00 | 1.02 | 1.02 | 92 | 1005.8 |
| 20260503231508 | 7 | 239 | 0.0 | 1.6 | 0.03 | 1.02 | 1.02 | 92 | 1005.9 |
| 20260503230009 | 7 | 360 | 0.0 | 3.2 | 0.03 | 1.02 | 1.02 | 91 | 1006.0 |
| 20260503224509 | 7 | 360 | 0.0 | 4.8 | 0.03 | 1.02 | 1.02 | 91 | 1006.1 |
| 20260503223009 | 7 | 238 | 0.0 | 4.8 | 0.03 | 1.02 | 1.02 | 90 | 1006.2 |
| 20260503221510 | 7 | 238 | 0.0 | 6.4 | 0.00 | 0.99 | 0.99 | 90 | 1006.2 |
| 20260503220010 | 7 | 238 | 0.0 | 8.0 | 0.03 | 0.99 | 0.99 | 89 | 1006.3 |
| 20260503214508 | 7 | 261 | 0.0 | 0.0 | 0.03 | 0.99 | 0.99 | 88 | 1006.4 |
| 20260503213012 | 8 | 360 | 0.0 | 12.9 | 0.03 | 0.99 | 0.99 | 85 | 1006.6 |
| 20260503211509 | 8 | 283 | 1.6 | 16.1 | 0.03 | 0.99 | 0.99 | 81 | 1006.8 |
| 20260503210010 | 9 | 259 | 6.4 | 16.1 | 0.00 | 0.97 | 0.97 | 75 | 1006.5 |
| 20260503204508 | 9 | 321 | 0.0 | 1.6 | 0.03 | 0.97 | 0.97 | 74 | 1006.3 |
| 20260503203013 | 10 | 321 | 1.6 | 8.0 | 0.03 | 0.97 | 0.97 | 72 | 1006.1 |
| 20260503201509 | 10 | 360 | 0.0 | 16.1 | 0.03 | 0.97 | 0.97 | 70 | 1006.2 |
| 20260503200010 | 11 | 360 | 3.2 | 12.9 | 0.03 | 0.97 | 0.97 | 66 | 1006.5 |
| 20260503194508 | 11 | 277 | 3.2 | 8.0 | 0.03 | 0.94 | 0.94 | 59 | 1006.7 |
| 20260503193022 | 11 | 104 | 0.0 | 4.8 | 0.03 | 0.94 | 0.94 | 55 | 1006.4 |
| 20260503191508 | 11 | 118 | 1.6 | 6.4 | 0.03 | 0.94 | 0.94 | 54 | 1006.7 |
| 20260503190009 | 11 | 128 | 1.6 | 6.4 | 0.03 | 0.94 | 0.94 | 55 | 1007.1 |
| 20260503184514 | 11 | 223 | 0.0 | 3.2 | 0.00 | 0.91 | 0.91 | 52 | 1007.5 |
| 20260503183011 | 11 | 223 | 0.0 | 4.8 | 0.00 | 0.91 | 0.91 | 52 | 1008.0 |
| 20260503181508 | 12 | 221 | 4.8 | 14.5 | 0.03 | 0.91 | 0.91 | 52 | 1008.6 |
| 20260503180016 | 12 | 236 | 3.2 | 11.3 | 0.03 | 0.91 | 0.91 | 48 | 1008.4 |
| 20260503174509 | 11 | 228 | 3.2 | 11.3 | 0.03 | 0.91 | 0.91 | 53 | 1008.4 |
| 20260503173020 | 8 | 238 | 4.8 | 11.3 | 0.03 | 0.91 | 0.91 | 58 | 1008.5 |
| 20260503171520 | 8 | 77 | 0.0 | 6.4 | 0.00 | 0.89 | 0.89 | 62 | 1008.7 |
| 20260503081513 | -1 | 360 | 0.0 | 0.0 | 0.00 | 0.00 | 0.00 | 78 | 1012.2 |
| 20260503071509 | -1 | 360 | 0.0 | 0.0 | 0.00 | 0.00 | 0.00 | 80 | 1012.4 |
| 20260503054509 | -1 | 360 | 0.0 | 0.0 | 0.00 | 0.00 | 0.00 | 80 | 1012.9 |
| 20260503053011 | -1 | 360 | 0.0 | 0.0 | 0.00 | 0.00 | 0.00 | 79 | 1012.9 |
| 20260503051510 | -1 | 360 | 0.0 | 3.2 | 0.00 | 0.00 | 0.00 | 79 | 1013.0 |
| 20260503050015 | -1 | 360 | 1.6 | 4.8 | 0.00 | 0.00 | 0.00 | 79 | 1013.2 |
| 20260503044509 | 0 | 360 | 1.6 | 3.2 | 0.00 | 0.00 | 0.00 | 78 | 1013.3 |
| 20260503043010 | 0 | 360 | 0.0 | 3.2 | 0.00 | 0.00 | 0.00 | 76 | 1013.4 |
| 20260503041510 | 0 | 360 | 0.0 | 3.2 | 0.00 | 0.00 | 0.00 | 74 | 1013.5 |
| 20260503040017 | 0 | 360 | 0.0 | 1.6 | 0.00 | 0.00 | 0.00 | 73 | 1013.6 |
| 20260503034510 | 0 | 360 | 0.0 | 3.2 | 0.00 | 0.00 | 0.00 | 73 | 1013.7 |
| 20260503033011 | 0 | 360 | 0.0 | 3.2 | 0.00 | 0.00 | 0.00 | 71 | 1013.6 |
| 20260503031510 | 0 | 360 | 0.0 | 3.2 | 0.00 | 0.00 | 0.00 | 71 | 1013.6 |
| 20260503030010 | 0 | 360 | 0.0 | 0.0 | 0.00 | 0.00 | 0.00 | 72 | 1013.6 |
| 20260503024510 | 1 | 360 | 0.0 | 3.2 | 0.00 | 0.00 | 0.00 | 73 | 1013.7 |
| 20260503023010 | 1 | 360 | 0.0 | 1.6 | 0.00 | 0.00 | 0.00 | 72 | 1013.8 |
| 20260503021510 | 1 | 360 | 0.0 | 4.8 | 0.00 | 0.00 | 0.00 | 70 | 1013.9 |
| 20260503020011 | 1 | 360 | 0.0 | 0.0 | 0.00 | 0.00 | 0.00 | 71 | 1013.9 |
| 20260503014510 | 2 | 360 | 1.6 | 4.8 | 0.00 | 0.00 | 0.00 | 69 | 1013.8 |
| 20260503013010 | 2 | 319 | 0.0 | 3.2 | 0.00 | 0.00 | 0.00 | 67 | 1013.7 |
| 20260503011510 | 3 | 320 | 1.6 | 8.0 | 0.00 | 0.00 | 0.00 | 68 | 1013.7 |
| 20260503010011 | 3 | 360 | 0.0 | 6.4 | 0.00 | 0.00 | 0.00 | 66 | 1013.6 |
| 20260503004510 | 4 | 360 | 4.8 | 12.9 | 0.00 | 0.00 | 0.00 | 68 | 1013.4 |
| 20260503003010 | 5 | 327 | 6.4 | 14.5 | 0.00 | 0.00 | 0.00 | 65 | 1013.0 |